Regional Weather Roundup
Issued by NWS

Home | Current Version | Previous Version | Text Only | Print | Product List | Glossary Off
Versions: 1 2 3 4 5 6 7 8 9 10 11 12 13 14 15 16 17 18 19 20 21 22 23 24 25 26 27 28 29 30 31 32 33 34 35 36 37 38 39 40 41 42 43 44 45 46 47 48 49 50

000
ASUS45 KTFX 261804
RWRMT
MONTANA HOURLY WEATHER ROUNDUP
NATIONAL WEATHER SERVICE GREAT FALLS MT
1104 AM MST MON JAN 26 2015

NOTE: "FAIR" INDICATES FEW OR NO CLOUDS BELOW 12000 FEET WITH NO
SIGNIFICANT WEATHER AND/OR OBSTRUCTIONS TO VISIBILITY.

* THESE STATIONS ARE NOT UNDER NWS QUALITY CONTROL. THEY DO NOT
   REPORT WEATHER SUCH AS PRECIPITATION OR FOG.

MTZ001>007-043-261900-
WEST OF THE DIVIDE
CITY           SKY/WX    TMP DP  RH WIND       PRES   REMARKS
KALISPELL      PTCLDY    30  28  92 CALM      30.09F
MISSOULA       SUNNY     34  30  85 W3        30.18F
BUTTE          SUNNY     36  28  73 VRB3      30.22F
MULLAN PASS    SUNNY     48  27  44 S8        30.13S
* ANACONDA     SUNNY     52  27  38 SE18G24    N/A
* ESSEX        N/A       35  29  79 E1         N/A
* LINCOLN      N/A       26  23  88 SE2        N/A
* LOOKOUT PASS N/A       49  32  52 S3         N/A
* POLSON       N/A       40  31  70 NE1        N/A
* RONAN APT    SUNNY     34  34 100 N/A        N/A
* SEELEY LAKE  N/A       33  29  85 N/A        N/A
* THOMP F APT  SUNNY     35  31  85 N1         N/A
$$

MTZ008-052>055-261900-
SOUTHWEST MONTANA
CITY           SKY/WX    TMP DP  RH WIND       PRES   REMARKS
BOZEMAN        SUNNY     37  30  76 CALM      30.22S
DILLON         SUNNY     45  28  51 S16       30.24F
* W YELLOWSTON PTCLDY    30  26  85 NE1        N/A
* THREE FORKS  SUNNY     41  39  93 N/A        N/A
* BOULDER HILL N/A       48  24  39 SW13       N/A
* MONIDA PASS  N/A       31  31 100 SE14G19    N/A   WCI  21
* RAYNOLDS PAS N/A       31  12  45 SE19       N/A   WCI  19
* WHITEHALL    N/A       44  29  56 N3         N/A
* WISE RIVER   N/A       31  25  78 NW4        N/A
$$

MTZ009>010-012-014-046-048-049-054-261900-
EAST SLOPES AND CENTRAL MONTANA
CITY           SKY/WX    TMP DP  RH WIND       PRES   REMARKS
CUT BANK       PTSUNNY   57  28  33 SW18      29.98S
GREAT FALLS    PTSUNNY   59  27  29 SW21      30.03R
HELENA         SUNNY     43  30  60 NW5       30.18F
MALMSTROM AFB  PTSUNNY   57  28  33 SW23G30   30.03S
* DEARBORN     N/A       52  28  40 S10G15     N/A
* EAST GLACIER N/A       52  24  34 W17        N/A
* MONARCH      N/A       55  21  27 SW12G19    N/A
* PENDROY      N/A       55  29  37 W10        N/A
* ROGERS PASS  N/A       49  24  38 SE6G11     N/A
* SWEET GRASS  N/A       52  26  36 SW25G30    N/A
$$

MTZ011-013-016-021-035-040-045-047-050-051-261900-
NORTH CENTRAL MONTANA
CITY           SKY/WX    TMP DP  RH WIND       PRES   REMARKS
HAVRE          CLOUDY    48  34  59 SW23G32   29.96R
LEWISTOWN      CLOUDY    48  30  50 SW21      30.07R
* N BAR RANCH  SUNNY     52  30  43 CALM      30.08R
* CHESTER      N/A       36  31  82 NE2        N/A
* DENTON       N/A       52  32  47 SW14       N/A
* GEYSER       N/A       64  25  23 W24G29     N/A
* JUDITH GAP   N/A       51  28  41 NE1G9      N/A
* LOMA         N/A       51  33  50 W11G16     N/A
$$

MTZ017>020-022>027-061-062-261900-
NORTHEAST MONTANA
CITY           SKY/WX    TMP DP  RH WIND       PRES   REMARKS
GLASGOW        PTSUNNY   39  34  82 E3        29.98R
GLENDIVE       PTCLDY    43  36  76 CALM      30.02R
JORDAN         CLOUDY    46  36  68 W8        29.98S
SIDNEY         PTCLDY    48  34  59 CALM      30.01F
WOLF POINT     PTCLDY    41  34  76 SW6       29.99S
* BEAVER HILL  N/A       45  33  63 W4         N/A
* CIRCLE       N/A       43  37  79 N/A        N/A
* LINDSAY DVD  N/A       52  33  48 W12G18     N/A
* NAVAJO       N/A       46  30  54 S2         N/A
* SACO         N/A       37  33  85 NE4        N/A
$$

MTZ028>042-056>058-261900-
SOUTHCENTRAL AND SOUTHEAST MONTANA
CITY           SKY/WX    TMP DP  RH WIND       PRES   REMARKS
BAKER          PTCLDY    48  36  63 NW3       30.02S
BILLINGS       CLOUDY    52  28  40 SW23G32   30.11R
LIVINGSTON     PTCLDY    59  25  27 SW26G38   30.14R
MILES CITY     PTSUNNY   48  36  63 S5        30.02S
* LAUREL APT   CLOUDY    50  28  43 N/A        N/A
* ROUNDUP APT  CLOUDY    52  27  38 S11        N/A
* ALZADA       N/A       56  33  42 SW10       N/A
* HYSHAM       N/A       50  26  39 W9G17      N/A
* LAME DEER    N/A       54  28  37 W15G20     N/A
* REED POINT   N/A       43  32  65 E4         N/A
* ROSCOE HILL  N/A       58  15  18 W4G9       N/A
$$

REGIONAL REPORTS...DAKOTAS
CITY           SKY/WX    TMP DP  RH WIND       PRES   REMARKS
WILLISTON      PTCLDY    46  30  54 W8        29.97F
DICKINSON      PTCLDY    46  34  63 NW14      29.98R
CROSBY         SUNNY     43  32  65 NW8       29.96S
WATFORD CITY   SUNNY     45  32  60 W8        29.97S
BISMARCK       PTCLDY    46  28  50 NW12      29.97R
GRAND FORKS    CLOUDY    36  30  79 N22G30    29.82R WCI  25
FARGO          PTCLDY    45  34  65 NW17G25   29.81R
BUFFALO SD     CLOUDY    55  34  45 W14       29.97S
RAPID CITY     PTCLDY    64  28  26 NW16G24   30.07R
$$

REGIONAL REPORTS...WYOMING/IDAHO/WASHINGTON
CITY           SKY/WX    TMP DP  RH WIND       PRES   REMARKS
GILLETTE       SUNNY    N/A N/A N/A N/A       30.14R
SHERIDAN       PTCLDY    61  34  36 CALM      30.11S
CODY           PTSUNNY   36  28  73 NE7       30.21R WCI  30
YELLOWSTONE LA SUNNY     18  14  84 SE3       30.46F
SALMON         CLOUDY   N/A N/A N/A CALM      30.37F VSB M1/4
MULLAN PASS    SUNNY     48  27  44 S8        30.13S
SAND POINT     FOG       36  36 100 CALM      30.11S VSB M1/4
SPOKANE        FOG       37  37 100 E6        30.07S VSB M1/4 WCI  32

$$



USA.gov is the U.S. government's official web portal to all federal, state and local government web resources and services.